Location: Gleizolles
(44.4833°N, 6.7667°E)
Time: 01:08:30
(UTC+00:00)

Vanguard 2 Rocket - Pass Details

Date: 22 June 2024
Orbit: 555 x 3302 km, 32.9° (Epoch: 24 July)

Event Time Altitude Azimuth Distance (km) Brightness Sun altitude
Rises 23:19:33 0° 198° (SSW) 6,312 - -22.0°
Reaches altitude 10° 23:24:36 10° 186° (S) 5,652 - -22.0°
Exits shadow 23:33:18 23° 157° (SSE) 5,003 10.1 -22.1°
Maximum altitude 23:37:55 26° 139° (SE) 4,974 10.2 -22.1°
Drops below altitude 10° 23:52:11 10° 93° (E) 6,137 11.1 -22.0°
Sets 23:57:53 0° 82° (E) 6,949 11.6 -21.9°
